period_start,C,m1,H,J0,J1,J2,J3,J4,J5,JA,JB,JC,JD,JJ,JK,JN,#
2014-03-03 00:00:54,0.43,4.39,0.00,23.59,29.10,32.00,6.24,31.75,1031.31,2031.00,2094.77,2263.30,2453.18,350.84,328.78,10.82,0000 0000 0000 0000 000000
2014-03-03 00:01:54,0.41,4.39,0.00,23.59,29.10,32.01,5.96,31.58,1031.34,2031.00,2094.26,2262.98,2452.69,349.10,327.16,10.83,0000 0000 0000 0000 000000
2014-03-03 00:02:54,0.40,4.40,0.00,23.59,29.09,31.97,6.22,31.46,1031.30,2031.00,2093.67,2262.43,2452.24,350.33,328.29,10.83,0000 0000 0000 0000 000000
2014-03-03 00:03:55,0.45,4.40,0.00,23.60,29.09,31.98,6.12,31.71,1031.32,2031.00,2093.14,2262.12,2451.75,349.69,327.70,10.84,0000 0000 0000 0000 000000
2014-03-03 00:04:55,0.40,4.40,0.00,23.60,29.09,31.99,6.16,31.71,1031.29,2031.00,2092.50,2261.59,2451.28,350.31,328.48,10.84,0000 0000 0000 0000 000000
2014-03-03 00:05:55,0.47,4.40,0.00,23.60,29.09,32.00,6.21,31.79,1031.27,2031.00,2092.09,2261.21,2450.92,350.64,328.57,10.85,0000 0000 0000 0000 000000
2014-03-03 00:06:55,0.37,4.41,0.00,23.60,29.08,31.99,6.36,31.75,1031.30,2031.00,2091.47,2260.86,2450.37,350.78,328.77,10.86,0000 0000 0000 0000 000000
2014-03-03 00:07:55,0.41,4.41,0.00,23.60,29.08,31.98,6.18,31.71,1031.32,2031.00,2090.92,2260.35,2449.97,350.30,328.32,10.86,0000 0000 0000 0000 000000
2014-03-03 00:08:56,0.45,4.41,0.00,23.60,29.08,31.98,6.06,31.63,1031.35,2031.00,2090.35,2260.04,2449.40,349.40,327.68,10.87,0000 0000 0000 0000 000000
2014-03-03 00:09:56,0.38,4.41,0.00,23.60,29.08,31.98,6.17,31.75,1031.42,2031.00,2089.84,2259.49,2449.10,350.25,328.42,10.87,0000 0000 0000 0000 000000
2014-03-03 00:10:56,0.44,4.42,0.00,23.61,29.08,32.00,6.21,31.75,1031.40,2031.00,2089.31,2259.17,2448.56,349.63,328.04,10.88,0000 0000 0000 0000 000000
2014-03-03 00:11:56,0.35,4.42,0.00,23.61,29.07,31.97,6.17,31.67,1031.42,2031.00,2088.85,2258.85,2448.19,349.41,327.45,10.89,0000 0000 0000 0000 000000
2014-03-03 00:12:56,0.40,4.42,0.00,23.62,29.07,31.97,6.10,31.50,1031.40,2031.00,2088.32,2258.35,2447.80,350.25,328.31,10.89,0000 0000 0000 0000 000000
2014-03-03 00:13:57,0.38,4.42,0.00,23.60,29.07,31.96,6.03,31.54,1031.38,2031.00,2087.73,2258.06,2447.30,349.77,328.01,10.90,0000 0000 0000 0000 000000
2014-03-03 00:14:57,0.39,4.42,0.00,23.60,29.07,31.97,6.17,31.71,1031.31,2031.01,2087.25,2257.49,2446.93,350.37,328.34,10.90,0000 0000 0000 0000 000000
2014-03-03 00:15:57,0.44,4.43,0.00,23.60,29.07,31.97,6.11,31.79,1031.37,2031.01,2086.67,2257.17,2446.36,350.08,328.08,10.91,0000 0000 0000 0000 000000
2014-03-03 00:16:57,0.40,4.43,0.00,23.60,29.07,31.97,6.11,31.38,1031.28,2031.00,2086.18,2256.73,2445.95,349.67,327.93,10.92,0000 0000 0000 0000 000000
2014-03-03 00:17:57,0.45,4.43,0.00,23.60,29.07,31.97,6.17,31.75,1031.27,2031.00,2085.53,2256.26,2445.38,350.04,327.66,10.92,0000 0000 0000 0000 000000
2014-03-03 00:18:58,0.42,4.43,0.00,23.61,29.07,31.98,6.16,31.88,1031.28,2031.00,2085.10,2256.00,2445.07,350.33,328.20,10.93,0000 0000 0000 0000 000000
2014-03-03 00:19:58,0.32,4.44,0.00,23.62,29.07,32.00,6.12,31.75,1031.30,2031.00,2084.50,2255.43,2444.55,350.15,328.10,10.93,0000 0000 0000 0000 000000
2014-03-03 00:20:58,0.48,4.44,0.00,23.62,29.07,31.95,6.08,31.29,1031.30,2031.00,2083.95,2255.13,2444.18,350.42,328.63,10.94,0000 0000 0000 0000 000000
2014-03-03 00:21:58,0.37,4.44,0.00,23.62,29.07,31.97,6.02,31.79,1031.31,2031.00,2083.36,2254.65,2443.66,349.37,327.37,10.94,0000 0000 0000 0000 000000
2014-03-03 00:22:58,0.47,4.44,0.00,23.62,29.07,31.95,6.14,31.88,1031.37,2031.01,2082.85,2254.24,2443.24,349.76,327.37,10.95,0000 0000 0000 0000 000000
2014-03-03 00:23:59,0.39,4.45,0.00,23.62,29.07,31.95,6.32,31.83,1031.33,2031.02,2082.30,2253.89,2442.80,350.13,327.68,10.96,0000 0000 0000 0000 000000
2014-03-03 00:24:59,0.42,4.45,0.00,23.62,29.07,31.96,5.97,31.92,1031.37,2031.00,2081.71,2253.36,2442.29,349.88,327.87,10.96,0000 0000 0000 0000 000000
2014-03-03 00:25:59,0.44,4.45,0.00,23.62,29.07,31.89,6.09,31.88,1031.37,2031.00,2081.24,2253.06,2441.89,349.43,327.45,10.97,0000 0000 0000 0000 000000
2014-03-03 00:26:59,0.34,4.45,0.00,23.62,29.07,31.96,6.16,32.04,1031.35,2031.00,2080.67,2252.54,2441.34,349.84,327.82,10.97,0000 0000 0000 0000 000000
2014-03-03 00:27:59,0.48,4.46,0.00,23.62,29.07,31.88,6.14,31.96,1031.46,2031.00,2080.16,2252.19,2441.01,350.70,328.66,10.98,0000 0000 0000 0000 000000
2014-03-03 00:29:00,0.35,4.46,0.00,23.62,29.07,31.93,6.02,31.96,1031.53,2031.01,2079.54,2251.82,2440.44,349.25,327.32,10.99,0000 0000 0000 0000 000000
2014-03-03 00:30:00,0.47,4.46,0.00,23.62,29.07,31.93,6.24,31.88,1031.60,2031.01,2079.00,2251.30,2440.09,350.64,328.65,10.99,0000 0000 0000 0000 000000
2014-03-03 00:31:00,0.42,4.46,0.00,23.63,29.07,31.95,6.18,31.88,1031.69,2031.00,2078.38,2250.96,2439.51,350.44,328.49,11.00,0000 0000 0000 0000 000000
2014-03-03 00:32:00,0.44,4.47,0.00,23.63,29.07,31.88,6.18,31.88,1031.70,2031.01,2077.95,2250.44,2439.17,350.73,328.76,11.00,0000 0000 0000 0000 000000
2014-03-03 00:33:01,0.40,4.47,0.00,23.64,29.07,31.91,6.07,31.63,1031.69,2031.00,2077.37,2250.15,2438.68,349.66,327.79,11.01,0000 0000 0000 0000 000000
2014-03-03 00:34:01,0.36,4.47,0.00,23.64,29.06,31.98,6.07,31.63,1031.72,2031.02,2076.92,2249.72,2438.24,349.73,327.75,11.01,0000 0000 0000 0000 000000
2014-03-03 00:35:01,0.44,4.47,0.00,23.64,29.06,31.90,6.13,31.83,1031.75,2031.02,2076.35,2249.26,2437.85,350.07,328.04,11.02,0000 0000 0000 0000 000000
2014-03-03 00:36:01,0.39,4.48,0.00,23.63,29.05,31.88,6.10,31.75,1031.75,2031.03,2075.71,2248.90,2437.33,350.57,328.95,11.03,0000 0000 0000 0000 000000
2014-03-03 00:37:02,0.46,4.48,0.00,23.64,29.05,31.94,6.13,31.50,1031.74,2031.02,2075.22,2248.35,2436.97,349.35,327.46,11.03,0000 0000 0000 0000 000000
2014-03-03 00:38:02,0.39,4.48,0.00,23.65,29.05,31.90,6.03,31.71,1031.74,2031.01,2074.63,2248.10,2436.40,350.06,328.28,11.04,0000 0000 0000 0000 000000
2014-03-03 00:39:02,0.39,4.48,0.00,23.65,29.05,31.97,6.27,31.79,1031.73,2031.01,2074.13,2247.64,2436.04,350.95,329.01,11.04,0000 0000 0000 0000 000000
2014-03-03 00:40:02,0.42,4.49,0.00,23.65,29.05,31.96,6.02,31.63,1031.74,2031.01,2073.52,2247.23,2435.46,349.72,327.81,11.05,0000 0000 0000 0000 000000
2014-03-03 00:41:03,0.45,4.49,0.00,23.65,29.05,31.94,6.07,31.63,1031.72,2031.00,2073.05,2246.84,2435.15,350.97,328.97,11.06,0000 0000 0000 0000 000000
2014-03-03 00:42:03,0.34,4.49,0.00,23.66,29.05,31.93,6.23,31.75,1031.64,2031.01,2072.45,2246.33,2434.64,350.08,328.10,11.06,0000 0000 0000 0000 000000
2014-03-03 00:43:03,0.48,4.49,0.00,23.67,29.05,31.94,6.09,31.67,1031.65,2031.00,2072.00,2246.02,2434.22,349.42,327.47,11.07,0000 0000 0000 0000 000000
2014-03-03 00:44:03,0.32,4.50,0.00,23.67,29.05,31.93,6.27,31.75,1031.72,2031.00,2071.40,2245.47,2433.72,349.85,327.89,11.07,0000 0000 0000 0000 000000
2014-03-03 00:45:04,0.49,4.50,0.00,23.67,29.05,31.94,6.22,31.67,1031.69,2031.00,2070.91,2245.17,2433.25,350.58,328.57,11.08,0000 0000 0000 0000 000000
2014-03-03 00:46:04,0.36,4.50,0.00,23.67,29.05,31.82,6.09,31.79,1031.62,2031.02,2070.33,2244.76,2432.85,349.76,327.78,11.09,0000 0000 0000 0000 000000
2014-03-03 00:47:04,0.47,4.50,0.00,23.67,29.05,31.86,6.17,31.71,1031.58,2031.02,2069.74,2244.29,2432.33,350.16,328.42,11.09,0000 0000 0000 0000 000000
2014-03-03 00:48:05,0.44,4.51,0.00,23.67,29.05,31.88,6.02,31.79,1031.55,2031.01,2069.26,2244.00,2432.05,349.40,327.42,11.10,0000 0000 0000 0000 000000
2014-03-03 00:49:05,0.27,4.51,0.00,23.67,29.05,31.88,6.08,31.92,1031.36,2031.03,2068.66,2243.46,2431.50,349.76,327.60,11.10,0000 0000 0000 0000 000000
2014-03-03 00:50:05,0.59,4.51,0.00,23.67,29.04,31.86,6.16,31.88,1031.39,2031.02,2068.15,2243.13,2431.15,350.64,328.65,11.11,0000 0000 0000 0000 000000
2014-03-03 00:51:05,0.27,4.51,0.00,23.67,29.04,31.88,6.08,31.54,1031.39,2031.02,2067.52,2242.62,2430.61,350.56,328.46,11.11,0000 0000 0000 0000 000000
2014-03-03 00:52:05,0.58,4.52,0.00,23.67,29.03,31.88,5.92,31.38,1031.39,2031.02,2067.04,2242.22,2430.22,348.48,326.87,11.12,0000 0000 0000 0000 000000
2014-03-03 00:53:06,0.33,4.52,0.00,23.68,29.03,31.89,6.08,31.96,1031.40,2031.03,2066.41,2241.85,2429.77,349.78,327.72,11.13,0000 0000 0000 0000 000000
2014-03-03 00:54:06,0.48,4.52,0.00,23.69,29.03,31.79,6.03,31.88,1031.41,2031.02,2065.89,2241.35,2429.28,349.93,327.61,11.13,0000 0000 0000 0000 000000
2014-03-03 00:55:06,0.41,4.52,0.00,23.69,29.02,31.74,6.06,31.88,1031.41,2031.04,2065.32,2241.08,2428.95,349.71,327.64,11.14,0000 0000 0000 0000 000000
2014-03-03 00:56:06,0.33,4.53,0.00,23.69,29.02,31.85,6.16,31.79,1031.41,2031.03,2064.72,2240.51,2428.39,350.33,328.33,11.14,0000 0000 0000 0000 000000
2014-03-03 00:57:07,0.56,4.53,0.00,23.70,29.02,31.79,6.01,31.58,1031.41,2031.02,2064.22,2240.17,2427.99,349.21,326.98,11.15,0000 0000 0000 0000 000000
2014-03-03 00:58:07,0.29,4.53,0.00,23.70,29.02,31.75,6.22,31.58,1031.54,2031.02,2063.59,2239.71,2427.42,349.75,327.67,11.16,0000 0000 0000 0000 000000
2014-03-03 00:59:07,0.56,4.53,0.00,23.70,29.02,31.76,6.07,31.88,1031.67,2031.02,2063.13,2239.26,2427.07,350.07,328.28,11.16,0000 0000 0000 0000 000000
2014-03-03 01:00:08,0.33,4.54,0.00,23.70,29.02,31.83,6.20,31.46,1031.68,2031.03,2062.51,2239.04,2426.53,350.62,328.68,11.17,0000 0000 0000 0000 000000
2014-03-03 01:01:08,0.42,4.54,0.00,23.70,29.02,31.85,6.02,31.67,1031.69,2031.05,2062.05,2238.55,2426.17,349.29,327.33,11.17,0000 0000 0000 0000 000000
2014-03-03 01:02:08,0.41,4.54,0.00,23.70,29.02,31.83,6.11,31.71,1031.68,2031.07,2061.43,2238.19,2425.67,350.20,328.18,11.18,0000 0000 0000 0000 000000
2014-03-03 01:03:08,0.45,4.54,0.00,23.70,29.02,31.79,6.18,31.71,1031.67,2031.06,2060.92,2237.84,2425.24,349.89,327.56,11.18,0000 0000 0000 0000 000000
2014-03-03 01:04:09,0.37,4.55,0.00,23.70,29.02,31.80,6.17,31.50,1031.73,2031.04,2060.34,2237.32,2424.72,350.65,328.62,11.19,0000 0000 0000 0000 000000
2014-03-03 01:05:09,0.45,4.55,0.00,23.70,29.02,31.74,5.97,31.54,1031.74,2031.04,2059.79,2237.01,2424.26,349.66,327.24,11.20,0000 0000 0000 0000 000000
2014-03-03 01:06:09,0.38,4.55,0.00,23.72,29.01,31.66,6.12,31.63,1031.74,2031.03,2059.28,2236.51,2423.87,350.60,328.55,11.20,0000 0000 0000 0000 000000
2014-03-03 01:07:10,0.44,4.55,0.00,23.72,29.00,31.77,6.17,31.33,1031.74,2031.08,2058.68,2236.18,2423.35,349.71,328.16,11.21,0000 0000 0000 0000 000000
2014-03-03 01:08:10,0.48,4.56,0.00,23.72,29.00,31.71,6.18,31.38,1031.75,2031.14,2058.24,2235.88,2423.06,351.15,329.07,11.21,0000 0000 0000 0000 000000
2014-03-03 01:09:10,0.32,4.56,0.00,23.72,29.00,31.68,6.17,31.63,1031.75,2031.17,2057.74,2235.40,2422.57,350.38,328.24,11.22,0000 0000 0000 0000 000000
2014-03-03 01:10:10,0.52,4.56,0.00,23.72,29.00,31.60,6.24,31.50,1031.73,2031.22,2057.25,2235.10,2422.19,350.99,329.25,11.23,0000 0000 0000 0000 000000
2014-03-03 01:11:11,0.35,4.56,0.00,23.72,29.00,31.67,6.19,31.25,1031.75,2031.24,2056.66,2234.61,2421.67,349.47,327.27,11.23,0000 0000 0000 0000 000000
2014-03-03 01:12:11,0.53,4.57,0.00,23.72,29.00,31.64,6.07,31.46,1031.75,2031.17,2056.19,2234.21,2421.24,349.90,327.87,11.24,0000 0000 0000 0000 000000
2014-03-03 01:13:11,0.25,4.57,0.00,23.73,29.00,31.71,6.07,31.46,1031.75,2031.18,2055.58,2233.80,2420.82,349.21,327.25,11.24,0000 0000 0000 0000 000000
2014-03-03 01:14:12,0.48,4.57,0.00,23.72,29.00,31.58,6.05,31.54,1031.75,2031.22,2055.10,2233.31,2420.31,351.11,329.51,11.25,0000 0000 0000 0000 000000
2014-03-03 01:15:12,0.47,4.57,0.00,23.74,29.00,31.54,6.21,31.33,1031.75,2031.36,2054.47,2233.06,2419.95,350.03,328.04,11.25,0000 0000 0000 0000 000000
2014-03-03 01:16:12,0.49,4.58,0.00,23.74,29.00,31.63,6.22,31.63,1031.75,2031.36,2054.03,2232.53,2419.40,351.00,328.53,11.26,0000 0000 0000 0000 000000
2014-03-03 01:17:12,0.48,4.58,0.00,23.75,28.99,31.55,6.16,31.71,1031.75,2031.28,2053.42,2232.18,2419.07,350.26,328.20,11.27,0000 0000 0000 0000 000000
2014-03-03 01:18:12,0.30,4.58,0.00,23.75,28.98,31.59,6.17,31.38,1031.75,2031.28,2052.91,2231.76,2418.49,349.94,328.16,11.27,0000 0000 0000 0000 000000
2014-03-03 01:19:13,0.46,4.58,0.00,23.75,28.98,31.54,6.11,31.63,1031.75,2031.27,2052.35,2231.28,2418.16,349.68,327.66,11.28,0000 0000 0000 0000 000000
2014-03-03 01:20:13,0.41,4.59,0.00,23.75,28.97,31.56,6.07,31.33,1031.75,2031.26,2051.79,2230.93,2417.64,349.88,327.84,11.28,0000 0000 0000 0000 000000
2014-03-03 01:21:13,0.41,4.59,0.00,23.75,28.97,31.54,6.17,31.42,1031.74,2031.24,2051.29,2230.41,2417.22,350.14,328.10,11.29,0000 0000 0000 0000 000000
2014-03-03 01:22:13,0.42,4.59,0.00,23.75,28.97,31.64,6.23,31.54,1031.75,2031.35,2050.74,2230.12,2416.81,350.82,328.70,11.30,0000 0000 0000 0000 000000
2014-03-03 01:23:14,0.48,4.59,0.00,23.77,28.97,31.56,6.24,31.42,1031.74,2031.28,2050.15,2229.61,2416.30,350.34,328.26,11.30,0000 0000 0000 0000 000000
2014-03-03 01:24:14,0.38,4.60,0.00,23.77,28.97,31.47,6.07,31.58,1031.74,2031.26,2049.49,2229.20,2415.86,349.68,327.63,11.31,0000 0000 0000 0000 000000
2014-03-03 01:25:14,0.47,4.60,0.00,23.77,28.97,31.45,6.04,31.54,1031.74,2031.30,2049.07,2228.76,2415.33,349.05,327.05,11.31,0000 0000 0000 0000 000000
2014-03-03 01:26:14,0.41,4.60,0.00,23.77,28.97,31.53,6.07,31.67,1031.75,2031.37,2048.45,2228.28,2414.90,349.78,328.20,11.32,0000 0000 0000 0000 000000
2014-03-03 01:27:14,0.55,4.60,0.00,23.77,28.96,31.54,6.18,31.71,1031.70,2031.44,2047.90,2228.02,2414.36,349.90,328.28,11.33,0000 0000 0000 0000 000000
2014-03-03 01:28:15,0.44,4.61,0.00,23.77,28.95,31.56,6.22,31.63,1031.73,2031.42,2047.34,2227.48,2414.02,350.88,328.76,11.33,0000 0000 0000 0000 000000
2014-03-03 01:29:15,0.39,4.61,0.00,23.77,28.95,31.44,6.13,31.88,1031.73,2031.50,2047.01,2227.16,2413.46,350.10,328.02,11.34,0000 0000 0000 0000 000000
2014-03-03 01:30:15,0.43,4.61,0.00,23.79,28.95,31.48,6.06,31.79,1031.72,2031.39,2046.44,2226.68,2413.08,349.76,327.73,11.34,0000 0000 0000 0000 000000
2014-03-03 01:31:15,0.38,4.61,0.00,23.79,28.95,31.50,6.18,31.75,1031.74,2031.46,2045.88,2226.25,2412.49,350.31,327.92,11.35,0000 0000 0000 0000 000000
2014-03-03 01:32:16,0.54,4.62,0.00,23.80,28.95,31.48,6.05,31.67,1031.75,2031.59,2045.33,2225.82,2412.14,349.80,327.72,11.35,0000 0000 0000 0000 000000
2014-03-03 01:33:16,0.51,4.62,0.00,23.80,28.95,31.43,6.08,31.21,1031.75,2031.63,2044.85,2225.32,2411.57,350.09,327.38,11.36,0000 0000 0000 0000 000000
2014-03-03 01:34:16,0.50,4.62,0.00,23.80,28.95,31.48,6.05,31.29,1031.75,2031.68,2044.30,2225.08,2411.20,349.74,327.80,11.37,0000 0000 0000 0000 000000
2014-03-03 01:35:17,0.40,4.63,0.00,23.80,28.95,31.34,5.98,31.04,1031.75,2031.77,2043.82,2224.59,2410.76,349.51,327.44,11.37,0000 0000 0000 0000 000000
2014-03-03 01:36:17,0.51,4.63,0.00,23.80,28.94,31.36,6.13,31.29,1031.75,2031.78,2043.25,2224.21,2410.29,350.49,328.35,11.38,0000 0000 0000 0000 000000
2014-03-03 01:37:17,0.43,4.63,0.00,23.80,28.93,31.35,6.28,31.58,1031.74,2031.75,2042.56,2223.78,2409.84,351.25,329.32,11.38,0000 0000 0000 0000 000000
2014-03-03 01:38:18,0.44,4.63,0.00,23.80,28.92,31.31,6.18,31.50,1031.75,2031.78,2042.08,2223.28,2409.32,350.54,328.41,11.39,0000 0000 0000 0000 000000
2014-03-03 01:39:18,0.47,4.64,0.00,23.80,28.92,31.38,5.94,31.04,1031.75,2031.77,2041.45,2223.01,2408.97,348.36,326.37,11.40,0000 0000 0000 0000 000000
2014-03-03 01:40:18,0.38,4.64,0.00,23.80,28.92,31.33,6.03,31.33,1031.75,2031.83,2041.05,2222.45,2408.41,349.75,327.90,11.40,0000 0000 0000 0000 000000
2014-03-03 01:41:18,0.51,4.64,0.00,23.80,28.92,31.38,6.02,31.33,1031.75,2031.87,2040.45,2222.16,2408.13,349.24,327.19,11.41,0000 0000 0000 0000 000000
2014-03-03 01:42:18,0.43,4.64,0.00,23.81,28.92,31.41,6.06,31.54,1031.73,2031.90,2039.99,2221.74,2407.64,349.70,327.88,11.41,0000 0000 0000 0000 000000
2014-03-03 01:43:19,0.41,4.65,0.00,23.82,28.92,31.39,6.13,31.63,1031.74,2031.91,2039.38,2221.29,2407.22,350.01,327.89,11.42,0000 0000 0000 0000 000000
2014-03-03 01:44:19,0.48,4.65,0.00,23.82,28.92,31.32,6.07,31.42,1031.75,2031.90,2038.90,2220.98,2406.75,349.34,327.62,11.42,0000 0000 0000 0000 000000
2014-03-03 01:45:19,0.35,4.65,0.00,23.82,28.91,31.29,6.18,31.50,1031.73,2031.88,2038.31,2220.41,2406.27,351.39,328.89,11.43,0000 0000 0000 0000 000000
2014-03-03 01:46:20,0.51,4.65,0.00,23.82,28.90,31.28,6.03,31.33,1031.69,2031.94,2037.73,2220.13,2405.84,350.06,327.92,11.44,0000 0000 0000 0000 000000
2014-03-03 01:47:20,0.41,4.66,0.00,23.82,28.90,31.23,5.98,31.46,1031.68,2031.95,2037.23,2219.69,2405.33,348.68,326.84,11.44,0000 0000 0000 0000 000000
2014-03-03 01:48:21,0.44,4.66,0.00,23.82,28.90,31.21,6.21,31.75,1031.67,2031.95,2036.60,2219.24,2404.97,351.06,328.88,11.45,0000 0000 0000 0000 000000
2014-03-03 01:49:21,0.45,4.66,0.00,23.82,28.90,31.21,6.17,31.50,1031.68,2031.97,2036.12,2218.91,2404.42,349.83,327.69,11.45,0000 0000 0000 0000 000000
2014-03-03 01:50:21,0.40,4.66,0.00,23.82,28.90,31.16,6.15,31.67,1031.65,2031.97,2035.48,2218.38,2404.07,350.43,328.30,11.46,0000 0000 0000 0000 000000
2014-03-03 01:51:22,0.51,4.67,0.00,23.82,28.90,31.20,6.09,31.63,1031.55,2031.97,2034.92,2218.09,2403.49,349.00,327.04,11.47,0000 0000 0000 0000 000000
2014-03-03 01:52:22,0.41,4.67,0.00,23.82,28.88,31.16,6.21,31.71,1031.57,2031.97,2034.33,2217.55,2403.13,351.21,329.13,11.47,0000 0000 0000 0000 000000
2014-03-03 01:53:22,0.48,4.67,0.00,23.80,28.88,31.10,5.96,31.42,1031.65,2031.98,2033.69,2217.19,2402.56,350.10,327.96,11.48,0000 0000 0000 0000 000000
2014-03-03 01:54:22,0.46,4.68,0.00,23.80,28.87,31.08,5.94,31.54,1031.62,2031.97,2033.21,2216.77,2402.19,349.29,328.07,11.48,0000 0000 0000 0000 000000
2014-03-03 01:55:23,0.38,4.68,0.00,23.80,28.87,31.11,6.04,31.50,1031.55,2031.96,2032.62,2216.29,2401.69,350.09,327.61,11.49,0000 0000 0000 0000 000000
2014-03-03 01:56:23,0.47,4.68,0.00,23.80,28.87,31.13,6.02,31.50,1031.55,2031.97,2032.15,2216.00,2401.25,349.51,327.38,11.49,0000 0000 0000 0000 000000
2014-03-03 01:57:23,0.37,4.68,0.00,23.80,28.87,31.09,5.99,31.38,1031.50,2031.96,2031.50,2215.44,2400.72,349.26,327.13,11.50,0000 0000 0000 0000 000000
2014-03-03 01:58:23,0.52,4.69,0.00,23.80,28.86,31.06,6.12,31.58,1031.54,2031.96,2030.92,2215.13,2400.27,351.32,329.07,11.51,0000 0000 0000 0000 000000
2014-03-03 01:59:23,0.40,4.69,0.00,23.80,28.85,31.04,6.12,31.54,1031.55,2031.97,2030.34,2214.61,2399.90,350.21,328.04,11.51,0000 0000 0000 0000 000000
2014-03-03 02:00:24,0.46,4.69,0.00,23.79,28.85,30.98,6.11,31.50,1031.53,2031.98,2029.87,2214.22,2399.37,350.04,327.87,11.52,0000 0000 0000 0000 000000
2014-03-03 02:01:24,0.43,4.69,0.00,23.80,28.85,30.96,6.13,31.88,1031.50,2031.98,2029.33,2213.88,2399.03,350.04,327.86,11.52,0000 0000 0000 0000 000000
2014-03-03 02:02:24,0.38,4.70,0.00,23.80,28.85,30.98,6.01,31.58,1031.52,2031.99,2028.82,2213.35,2398.48,349.55,327.41,11.53,0000 0000 0000 0000 000000
2014-03-03 02:03:24,0.48,4.70,0.00,23.80,28.84,31.00,6.15,31.67,1031.48,2031.99,2028.30,2213.09,2398.16,349.78,327.65,11.54,0000 0000 0000 0000 000000
2014-03-03 02:04:25,0.38,4.70,0.00,23.82,28.83,30.99,6.08,31.71,1031.44,2031.99,2027.71,2212.58,2397.64,349.44,327.27,11.54,0000 0000 0000 0000 000000
2014-03-03 02:05:25,0.45,4.70,0.00,23.82,28.82,30.99,6.09,31.58,1031.50,2031.99,2027.22,2212.20,2397.23,349.97,327.78,11.55,0000 0000 0000 0000 000000
2014-03-03 02:06:25,0.41,4.71,0.00,23.82,28.82,30.96,6.02,31.75,1031.51,2031.99,2026.62,2211.88,2396.81,349.58,327.19,11.55,0000 0000 0000 0000 000000
2014-03-03 02:07:26,0.40,4.71,0.00,23.82,28.82,30.91,6.23,31.71,1031.48,2031.99,2026.14,2211.35,2396.30,350.72,328.45,11.56,0000 0000 0000 0000 000000
2014-03-03 02:08:26,0.46,4.71,0.00,23.80,28.82,30.93,6.10,31.50,1031.49,2031.99,2025.49,2211.08,2395.93,350.71,328.09,11.57,0000 0000 0000 0000 000000
2014-03-03 02:09:26,0.40,4.71,0.00,23.78,28.80,30.85,6.18,31.67,1031.45,2031.99,2024.99,2210.56,2395.38,350.54,328.33,11.57,0000 0000 0000 0000 000000
2014-03-03 02:10:26,0.45,4.72,0.00,23.77,28.80,30.81,6.06,31.75,1031.44,2031.99,2024.39,2210.20,2395.07,349.59,327.49,11.58,0000 0000 0000 0000 000000
2014-03-03 02:11:27,0.42,4.72,0.00,23.76,28.80,30.78,6.02,31.63,1031.38,2031.99,2023.90,2209.81,2394.49,350.41,328.22,11.58,0000 0000 0000 0000 000000
2014-03-03 02:12:27,0.41,4.72,0.00,23.75,28.79,30.78,6.18,31.92,1031.36,2031.99,2023.36,2209.32,2394.13,350.90,328.30,11.59,0000 0000 0000 0000 000000
2014-03-03 02:13:27,0.45,4.72,0.00,23.75,28.79,30.80,6.18,31.54,1031.33,2031.99,2022.87,2209.07,2393.58,350.17,327.82,11.59,0000 0000 0000 0000 000000
2014-03-03 02:14:28,0.38,4.73,0.00,23.73,28.77,30.75,6.13,31.67,1031.31,2031.99,2022.29,2208.53,2393.20,351.08,328.85,11.60,0000 0000 0000 0000 000000
2014-03-03 02:15:28,0.46,4.73,0.00,23.72,28.77,30.70,5.99,31.54,1031.30,2031.99,2021.71,2208.17,2392.77,349.39,327.28,11.61,0000 0000 0000 0000 000000
2014-03-03 02:16:28,0.42,4.73,0.00,23.71,28.77,30.72,6.17,31.67,1031.33,2031.99,2021.20,2207.65,2392.28,350.27,328.08,11.61,0000 0000 0000 0000 000000
2014-03-03 02:17:29,0.46,4.73,0.00,23.70,28.76,30.73,6.12,31.71,1031.33,2031.99,2020.56,2207.23,2391.93,349.80,327.69,11.62,0000 0000 0000 0000 000000
2014-03-03 02:18:29,0.42,4.74,0.00,23.69,28.75,30.69,6.15,31.58,1031.31,2031.99,2020.16,2206.95,2391.38,350.97,328.79,11.62,0000 0000 0000 0000 000000
2014-03-03 02:19:29,0.40,4.74,0.00,23.68,28.75,30.67,6.08,31.67,1031.28,2032.01,2019.56,2206.43,2391.09,350.65,328.41,11.63,0000 0000 0000 0000 000000
2014-03-03 02:20:29,0.44,4.74,0.00,23.69,28.74,30.64,6.11,31.79,1031.30,2032.01,2019.10,2206.12,2390.50,349.70,327.59,11.64,0000 0000 0000 0000 000000
2014-03-03 02:21:30,0.43,4.74,0.00,23.69,28.73,30.61,6.10,31.54,1031.32,2032.02,2018.44,2205.59,2390.13,349.74,327.63,11.64,0000 0000 0000 0000 000000
2014-03-03 02:22:30,0.48,4.75,0.00,23.70,28.72,30.60,6.06,31.54,1031.29,2032.01,2017.87,2205.21,2389.56,349.28,327.20,11.65,0000 0000 0000 0000 000000
2014-03-03 02:23:30,0.42,4.75,0.00,23.70,28.72,30.63,6.10,31.63,1031.28,2032.02,2017.30,2204.88,2389.18,350.00,328.32,11.65,0000 0000 0000 0000 000000
2014-03-03 02:24:31,0.44,4.75,0.00,23.70,28.72,30.64,6.10,31.38,1031.29,2032.01,2016.66,2204.35,2388.67,351.09,328.89,11.66,0000 0000 0000 0000 000000
2014-03-03 02:25:31,0.47,4.75,0.00,23.68,28.70,30.62,6.17,31.50,1031.29,2032.02,2016.20,2204.04,2388.25,350.91,328.24,11.66,0000 0000 0000 0000 000000
2014-03-03 02:26:31,0.41,4.76,0.00,23.67,28.70,30.58,6.23,31.46,1031.28,2032.07,2015.63,2203.51,2387.83,350.94,328.82,11.67,0000 0000 0000 0000 000000
2014-03-03 02:27:32,0.48,4.76,0.00,23.65,28.70,30.64,6.13,31.50,1031.29,2032.09,2015.00,2203.17,2387.31,349.90,327.95,11.68,0000 0000 0000 0000 000000
2014-03-03 02:28:32,0.50,4.76,0.00,23.65,28.69,30.61,6.11,31.58,1031.29,2032.10,2014.38,2202.70,2386.97,350.32,328.41,11.68,0000 0000 0000 0000 000000
2014-03-03 02:29:32,0.44,4.76,0.00,23.63,28.67,30.61,6.02,31.79,1031.29,2032.12,2013.78,2202.26,2386.41,351.04,328.97,11.69,0000 0000 0000 0000 000000
2014-03-03 02:30:33,0.49,4.77,0.00,23.62,28.67,30.58,6.03,31.50,1031.29,2032.13,2013.26,2201.92,2386.01,349.22,327.22,11.69,0000 0000 0000 0000 000000
2014-03-03 02:31:33,0.42,4.77,0.00,23.62,28.67,30.56,6.03,31.92,1031.29,2032.11,2012.84,2201.42,2385.44,350.11,328.05,11.70,0000 0000 0000 0000 000000
2014-03-03 02:32:33,0.43,4.77,0.00,23.60,28.65,30.54,6.14,31.92,1031.29,2032.14,2012.31,2201.12,2385.12,349.36,327.38,11.71,0000 0000 0000 0000 000000
2014-03-03 02:33:34,0.41,4.77,0.00,23.58,28.65,30.57,5.93,31.67,1031.28,2032.28,2011.74,2200.67,2384.56,347.51,325.66,11.71,0000 0000 0000 0000 000000
2014-03-03 02:34:34,0.55,4.78,0.00,23.56,28.65,30.64,5.97,31.38,1031.31,2032.43,2011.21,2200.24,2384.21,349.82,327.85,11.72,0000 0000 0000 0000 000000
2014-03-03 02:35:34,0.59,4.78,0.00,23.54,28.63,30.62,6.03,31.50,1031.31,2032.59,2010.57,2199.91,2383.80,349.76,327.82,11.72,0000 0000 0000 0000 000000
2014-03-03 02:36:34,0.53,4.78,0.00,23.52,28.62,30.68,6.03,31.79,1031.34,2032.75,2010.19,2199.38,2383.30,349.54,327.83,11.73,0000 0000 0000 0000 000000